TimeMST,TemperatureF,Dew PointF,Humidity,Sea Level PressureIn,VisibilityMPH,Wind Direction,Wind SpeedMPH,Gust SpeedMPH,PrecipitationIn,Events,Conditions,WindDirDegrees,DateUTC
12:51 AM,73.9,35.1,24,29.78,10.0,Calm,Calm,-,N/A,,Scattered Clouds,0,2013-04-07 07:51:00
1:51 AM,72.0,35.1,26,29.76,10.0,ESE,4.6,-,N/A,,Scattered Clouds,110,2013-04-07 08:51:00
2:51 AM,68.0,37.0,32,29.75,10.0,East,6.9,-,N/A,,Scattered Clouds,80,2013-04-07 09:51:00
3:51 AM,66.9,37.0,33,29.76,10.0,East,8.1,-,N/A,,Scattered Clouds,90,2013-04-07 10:51:00
4:51 AM,64.9,37.0,36,29.77,10.0,East,5.8,-,N/A,,Scattered Clouds,80,2013-04-07 11:51:00
5:51 AM,64.0,35.1,34,29.78,10.0,East,8.1,-,N/A,,Partly Cloudy,80,2013-04-07 12:51:00
6:51 AM,64.0,35.1,34,29.80,10.0,East,6.9,-,N/A,,Scattered Clouds,90,2013-04-07 13:51:00
7:51 AM,68.0,35.6,30,29.86,10.0,East,6.9,-,N/A,,Partly Cloudy,90,2013-04-07 14:51:00
8:51 AM,73.0,35.1,25,29.81,10.0,ESE,3.5,-,N/A,,Partly Cloudy,120,2013-04-07 15:51:00
9:51 AM,77.0,35.1,22,29.82,10.0,ENE,3.5,-,N/A,,Partly Cloudy,60,2013-04-07 16:51:00
10:51 AM,80.1,35.1,20,29.82,10.0,Calm,Calm,-,N/A,,Partly Cloudy,0,2013-04-07 17:51:00
11:51 AM,82.9,34.0,17,29.79,10.0,Calm,Calm,-,N/A,,Partly Cloudy,0,2013-04-07 18:51:00
12:51 PM,84.9,33.1,16,29.76,10.0,North,3.5,-,N/A,,Scattered Clouds,10,2013-04-07 19:51:00
1:51 PM,84.9,30.9,14,29.73,10.0,WNW,5.8,-,N/A,,Mostly Cloudy,300,2013-04-07 20:51:00
2:51 PM,88.0,32.0,14,29.71,10.0,Variable,5.8,-,N/A,,Mostly Cloudy,0,2013-04-07 21:51:00
3:51 PM,88.0,32.0,14,29.69,10.0,West,9.2,-,N/A,,Mostly Cloudy,260,2013-04-07 22:51:00
4:51 PM,87.1,30.9,13,29.68,10.0,West,12.7,23.0,N/A,,Mostly Cloudy,280,2013-04-07 23:51:00
5:51 PM,86.0,28.9,13,29.66,10.0,West,9.2,-,N/A,,Mostly Cloudy,260,2013-04-08 00:51:00
6:51 PM,84.9,30.9,14,29.65,10.0,West,6.9,-,N/A,,Mostly Cloudy,260,2013-04-08 01:51:00
7:51 PM,82.4,30.2,15,29.68,10.0,SW,3.5,-,N/A,,Mostly Cloudy,220,2013-04-08 02:51:00
8:51 PM,80.1,35.1,20,29.63,10.0,Calm,Calm,-,N/A,,Mostly Cloudy,0,2013-04-08 03:51:00
9:51 PM,78.8,33.8,20,29.68,10.0,Calm,Calm,-,N/A,,Mostly Cloudy,0,2013-04-08 04:51:00
10:51 PM,77.0,36.0,23,29.63,10.0,WSW,3.5,-,N/A,,Mostly Cloudy,240,2013-04-08 05:51:00
11:51 PM,77.0,39.0,25,29.64,10.0,WSW,4.6,-,N/A,,Mostly Cloudy,250,2013-04-08 06:51:00